Weather History for Philip, SD

Change the Weather History Date:

Saturday, February 23, 2013

  Actual Average Record
Temperature  
Mean Temperature 21 °F 28 °F  
Max Temperature 37 °F 40 °F 68 °F (1958)
Min Temperature 5 °F 15 °F -18 °F (1965)
Degree Days  
Heating Degree Days 44 38  
Month to date heating degree days 822 918  
Since 1 July heating degree days 4857 5183  
Cooling Degree Days 0 0  
Month to date cooling degree days 0 0  
Year to date cooling degree days 0 0  
Moisture  
Dew Point 14 °F    
Average Humidity 77    
Maximum Humidity 100    
Minimum Humidity 54    
Precipitation  
Precipitation 0.00 in 0.02 in 0.10 in (1972)
Month to date precipitation 0.28 0.33  
Year to date precipitation 0.81 0.63  
Sea Level Pressure  
Sea Level Pressure 29.77 in    
Wind  
Wind Speed 3 mph (East)    
Max Wind Speed 9 mph    
Max Gust Speed 10 mph    
Visibility 6 miles    
Events Fog    
T = Trace of Precipitation, MM = Missing Value Source: NWS Daily Summary

Daily Weather History Graph

Daily Weather History Graph

Search for Another Location

Airport:

Trip Planner

Search our weather history database for the weather conditions in past years. The results will help you decide how hot, cold, wet, or windy it might be!

Date:

Astronomy

Feb. 23, 2013 Rise Set
Actual Time 6:32 AM MST 5:27 PM MST
Civil Twilight 6:03 AM MST 5:56 PM MST
Nautical Twilight 5:30 AM MST 6:30 PM MST
Astronomical Twilight 4:56 AM MST 7:03 PM MST
Moon 3:37 PM MST (2/23) 4:59 AM MST (2/23)
Length of Visible Light 11h 52m
Length of Day
10h 54m
Waxing Gibbous, 95% of the Moon is Illuminated
Feb 23
Waxing Gibbous
Feb 25
Full
Mar 4
Last Quarter
Mar 11
New
Mar 19
First Quarter

Hourly Weather History & Observations

Time (MST) Temp. Windchill Dew Point Humidity Pressure Visibility Wind Dir Wind Speed Gust Speed Precip Events Conditions
12:55 AM 10.9 °F - 8.1 °F 88% 29.86 in 10.0 mi Calm Calm - N/A   Clear
1:47 AM 12.2 °F - 10.4 °F 92% 29.75 in 1.8 mi Calm Calm - N/A   Clear
1:55 AM 12.0 °F - 10.0 °F 92% 29.84 in 0.8 mi Calm Calm - N/A   Clear
2:07 AM 10.4 °F - 8.6 °F 92% 29.75 in 6.0 mi Calm Calm - N/A   Clear
2:26 AM 12.2 °F - 10.4 °F 92% 29.74 in 2.5 mi Calm Calm - N/A   Clear
2:39 AM 12.2 °F - 10.4 °F 92% 29.73 in 0.8 mi Calm Calm - N/A   Clear
2:55 AM 12.9 °F - 10.0 °F 88% 29.81 in 0.2 mi Calm Calm - N/A Fog Light Freezing Fog
3:03 AM 12.2 °F - 10.4 °F 92% 29.72 in 0.5 mi Calm Calm - N/A Fog Light Freezing Fog
3:27 AM 10.4 °F - 8.6 °F 92% 29.72 in 1.2 mi Calm Calm - N/A   Clear
3:52 AM 10.4 °F - 8.6 °F 92% 29.71 in 0.8 mi Calm Calm - N/A   Clear
3:55 AM 10.9 °F - 9.0 °F 92% 29.80 in 0.8 mi Calm Calm - N/A   Mist
4:29 AM 8.6 °F - 6.8 °F 92% 29.71 in 0.2 mi Calm Calm - N/A Fog Light Freezing Fog
4:41 AM 8.6 °F - 5.0 °F 85% 29.71 in 0.5 mi Calm Calm - N/A Fog Light Freezing Fog
4:55 AM 8.1 °F - 6.1 °F 92% 29.80 in 0.2 mi Calm Calm - N/A Fog Light Freezing Fog
5:43 AM 8.6 °F - 5.0 °F 85% 29.71 in 1.2 mi Calm Calm - N/A   Partly Cloudy
5:47 AM 6.8 °F - 3.2 °F 85% 29.71 in 3.0 mi Calm Calm - N/A   Clear
5:55 AM 6.1 °F - 3.0 °F 87% 29.81 in 9.0 mi Calm Calm - N/A   Clear
6:55 AM 7.0 °F - 3.9 °F 87% 29.81 in 1.2 mi Calm Calm - N/A   Clear
7:16 AM 8.6 °F - 6.8 °F 92% 29.70 in 0.5 mi Calm Calm - N/A Fog Light Freezing Fog
7:24 AM 8.6 °F 2.0 °F 6.8 °F 92% 29.70 in 2.5 mi East 3.5 mph - N/A   Clear
7:31 AM 8.6 °F - 6.8 °F 92% 29.70 in 6.0 mi Calm Calm - N/A   Partly Cloudy
7:55 AM 10.9 °F - 10.0 °F 96% 29.81 in 9.0 mi Calm Calm - N/A   Partly Cloudy
8:55 AM 16.0 °F - 14.0 °F 92% 29.80 in 10.0 mi Calm Calm - N/A   Clear
9:55 AM 23.0 °F - 18.0 °F 81% 29.80 in 10.0 mi Calm Calm - N/A   Clear
10:55 AM 27.0 °F 23.0 °F 19.0 °F 72% 29.78 in 10.0 mi East 3.5 mph - N/A   Clear
11:55 AM 32.0 °F 27.5 °F 23.0 °F 69% 29.77 in 10.0 mi East 4.6 mph - N/A   Clear
12:55 PM 35.1 °F 32.2 °F 21.9 °F 59% 29.75 in 10.0 mi East 3.5 mph - N/A   Clear
1:55 PM 37.0 °F 32.4 °F 23.0 °F 57% 29.72 in 10.0 mi East 5.8 mph - N/A   Clear
2:55 PM 36.0 °F 31.1 °F 24.1 °F 62% 29.73 in 10.0 mi East 5.8 mph - N/A   Clear
3:55 PM 35.1 °F 30.1 °F 23.0 °F 61% 29.75 in 10.0 mi ESE 5.8 mph - N/A   Clear
4:55 PM 33.1 °F 26.9 °F 26.1 °F 75% 29.77 in 10.0 mi East 6.9 mph - N/A   Partly Cloudy
5:55 PM 30.9 °F 22.8 °F 26.1 °F 82% 29.79 in 10.0 mi East 9.2 mph - N/A   Clear
6:55 PM 30.0 °F - 25.0 °F 82% 29.82 in 10.0 mi Calm Calm - N/A   Clear
7:55 PM 27.0 °F 20.5 °F 24.1 °F 89% 29.83 in 10.0 mi NE 5.8 mph - N/A   Mostly Cloudy
8:55 PM 27.0 °F 18.7 °F 24.1 °F 89% 29.84 in 10.0 mi NE 8.1 mph - N/A   Overcast
9:55 PM 24.1 °F - 21.9 °F 91% 29.86 in 10.0 mi Calm Calm - N/A   Mostly Cloudy
10:55 PM 21.9 °F 14.5 °F 19.9 °F 92% 29.86 in 10.0 mi ENE 5.8 mph - N/A   Partly Cloudy
11:55 PM 23.0 °F - 21.0 °F 92% 29.87 in 10.0 mi Calm Calm - N/A   Mostly Cloudy